GW3183 Weather Reports


time (UTC)temp
C
wind
direction
speed
KPH
gust
KPH
rain 1hr
cm
rain 24hr
cm
rain mn
cm
humidity
%
barometer
mb
20260509162042 30 236 1.6 4.8 0.00 0.00 0.00 50 1009.2
20260509161539 31 205 3.2 4.8 0.00 0.00 0.00 50 1009.2
20260509161033 30 191 0.0 1.6 0.00 0.00 0.00 51 1009.3
20260509160530 30 177 3.2 4.8 0.00 0.00 0.00 50 1009.2
20260509160025 30 177 3.2 4.8 0.00 0.00 0.00 49 1009.2
20260509155521 30 223 1.6 8.0 0.00 0.00 0.00 51 1009.1
20260509155017 30 191 1.6 3.2 0.00 0.00 0.00 54 1009.1
20260509154514 30 207 0.0 8.0 0.00 0.00 0.00 52 1009.0
20260509154012 30 26 1.6 4.8 0.00 0.00 0.00 54 1009.1
20260509153508 30 194 3.2 11.3 0.00 0.00 0.00 50 1009.0
20260509153005 30 183 3.2 11.3 0.00 0.00 0.00 52 1009.1
20260509152501 30 185 1.6 1.6 0.00 0.00 0.00 53 1009.0
20260509151958 30 337 1.6 3.2 0.00 0.00 0.00 54 1009.0
20260509151454 30 174 1.6 3.2 0.00 0.00 0.00 54 1009.2
20260509150953 29 185 4.8 8.0 0.00 0.00 0.00 54 1009.0
20260509150449 28 209 3.2 4.8 0.00 0.00 0.00 55 1009.1
20260509145948 28 156 0.0 4.8 0.00 0.00 0.00 55 1009.2
20260509145443 28 288 3.2 11.3 0.00 0.00 0.00 54 1009.2
20260509144938 28 288 3.2 9.7 0.00 0.00 0.00 54 1009.2
20260509144436 28 245 3.2 8.0 0.00 0.00 0.00 55 1009.4
20260509143933 28 152 1.6 3.2 0.00 0.00 0.00 57 1009.3
20260509143430 28 274 4.8 8.0 0.00 0.00 0.00 56 1009.4
20260509142926 27 195 1.6 4.8 0.00 0.00 0.00 60 1009.3
20260509142423 27 214 0.0 4.8 0.00 0.00 0.00 64 1009.1
20260509141918 27 199 0.0 4.8 0.00 0.00 0.00 66 1009.1
20260509141416 27 194 1.6 4.8 0.00 0.00 0.00 66 1009.2
20260509140912 27 164 1.6 3.2 0.00 0.00 0.00 68 1009.1
20260509140408 26 224 0.0 1.6 0.00 0.00 0.00 72 1009.2
20260509135907 26 210 0.0 1.6 0.00 0.00 0.00 71 1009.2
20260509135404 26 202 0.0 3.2 0.00 0.00 0.00 73 1009.2
20260509134901 26 223 0.0 1.6 0.00 0.00 0.00 74 1009.3
20260509134359 25 221 0.0 3.2 0.00 0.00 0.00 76 1009.4
20260509133855 25 222 1.6 3.2 0.00 0.00 0.00 75 1009.3
20260509133352 25 224 0.0 1.6 0.00 0.00 0.00 76 1009.1
20260509132851 25 260 1.6 4.8 0.00 0.00 0.00 76 1009.1
20260509132349 25 258 1.6 3.2 0.00 0.00 0.00 76 1009.1
20260509131845 25 150 0.0 3.2 0.00 0.00 0.00 76 1009.0
20260509131342 25 212 0.0 1.6 0.00 0.00 0.00 78 1009.1
20260509130839 25 238 1.6 4.8 0.00 0.00 0.00 79 1009.1
20260509130334 24 352 1.6 3.2 0.00 0.00 0.00 80 1009.2
20260509125831 23 215 0.0 3.2 0.00 0.00 0.00 82 1009.1
20260509125328 23 259 1.6 3.2 0.00 0.00 0.00 84 1009.1
20260509124824 23 292 1.6 3.2 0.00 0.00 0.00 83 1009.2
20260509124321 23 213 0.0 1.6 0.00 0.00 0.00 85 1009.1
20260509123819 22 230 0.0 1.6 0.00 0.00 0.00 86 1009.1
20260509123316 21 220 0.0 1.6 0.00 0.00 0.00 89 1009.0
20260509122811 21 241 1.6 3.2 0.00 0.00 0.00 92 1009.0
20260509122309 20 218 1.6 1.6 0.00 0.00 0.00 93 1008.9
20260509121806 20 258 1.6 3.2 0.00 0.00 0.00 94 1008.7
20260509121303 20 225 0.0 0.0 0.00 0.00 0.00 95 1008.7
20260509120801 20 241 0.0 3.2 0.00 0.00 0.00 96 1008.7
20260509120258 20 242 0.0 1.6 0.00 0.00 0.00 97 1008.7
20260509115757 20 204 0.0 1.6 0.00 0.00 0.00 97 1008.7
20260509115253 19 242 0.0 3.2 0.00 0.00 0.00 97 1008.8
20260509114751 19 219 0.0 1.6 0.00 0.00 0.00 97 1008.7
20260509114250 19 207 0.0 1.6 0.00 0.00 0.00 97 1008.5
20260509113748 19 286 3.2 4.8 0.00 0.00 0.00 97 1008.3
20260509113245 19 242 0.0 4.8 0.00 0.00 0.00 96 1008.2
20260509112742 19 271 1.6 1.6 0.00 0.00 0.00 96 1008.3
20260509112239 19 282 4.8 4.8 0.00 0.00 0.00 96 1008.2
20260509111736 19 264 0.0 3.2 0.00 0.00 0.00 96 1008.0
20260509111232 19 265 1.6 4.8 0.00 0.00 0.00 95 1008.1
20260509110730 20 218 1.6 9.7 0.00 0.00 0.00 95 1008.1
20260509110226 19 268 3.2 4.8 0.00 0.00 0.00 95 1007.7
20260509105725 19 235 0.0 8.0 0.00 0.00 0.00 94 1007.9
20260509105222 19 257 1.6 3.2 0.00 0.00 0.00 94 1007.8
20260509104719 19 244 0.0 1.6 0.00 0.00 0.00 94 1007.7
20260509104216 19 285 1.6 3.2 0.00 0.00 0.00 94 1008.0
20260509103714 19 246 3.2 3.2 0.00 0.00 0.00 94 1007.5
20260509103211 19 253 1.6 3.2 0.00 0.00 0.00 94 1007.8
20260509102709 19 271 4.8 4.8 0.00 0.00 0.00 94 1007.4
20260509102206 19 261 3.2 4.8 0.00 0.00 0.00 94 1007.2
20260509101702 19 253 0.0 1.6 0.00 0.00 0.00 93 1007.3
20260509101158 19 252 0.0 3.2 0.00 0.00 0.00 92 1007.2
20260509100656 19 252 0.0 1.6 0.00 0.00 0.00 90 1007.1
20260509100152 20 252 0.0 0.0 0.00 0.00 0.00 89 1007.2
20260509095650 20 252 0.0 0.0 0.00 0.00 0.00 89 1007.2
20260509095147 20 252 0.0 0.0 0.00 0.00 0.00 88 1007.1
20260509094643 20 251 0.0 1.6 0.00 0.00 0.00 88 1007.0
20260509094140 20 252 0.0 1.6 0.00 0.00 0.00 86 1006.8
20260509093639 21 252 1.6 1.6 0.00 0.00 0.00 85 1006.7
20260509093135 21 268 0.0 1.6 0.00 0.00 0.00 83 1006.7
20260509092634 21 261 0.0 1.6 0.00 0.00 0.00 82 1006.5
20260509092132 21 248 1.6 3.2 0.00 0.00 0.00 81 1006.2
20260509091630 21 213 1.6 1.6 0.00 0.00 0.00 80 1006.3
20260509091125 22 183 0.0 3.2 0.00 0.00 0.00 79 1006.3
20260509090623 22 178 1.6 1.6 0.00 0.00 0.00 77 1006.4
20260509090120 22 227 0.0 0.0 0.00 0.00 0.00 74 1006.5
20260509085618 22 227 0.0 0.0 0.00 0.00 0.00 72 1006.4
20260509085113 22 287 0.0 3.2 0.00 0.00 0.00 72 1006.4
20260509084611 22 270 4.8 8.0 0.00 0.00 0.00 73 1006.7
20260509084108 22 285 6.4 11.3 0.00 0.00 0.00 74 1006.8
20260509083605 21 277 1.6 4.8 0.00 0.00 0.00 83 1006.3
20260509083101 21 296 4.8 8.0 0.00 0.00 0.00 83 1004.5
20260509082559 21 243 3.2 9.7 0.00 0.00 0.00 82 1004.2
20260509082056 21 339 1.6 12.9 0.00 0.00 0.00 83 1003.9
20260509081553 21 56 3.2 8.0 0.00 0.00 0.00 83 1004.3
20260509081050 21 267 1.6 3.2 0.00 0.00 0.00 84 1005.0
20260509080548 21 147 0.0 4.8 0.00 0.00 0.00 83 1004.0
20260509080046 21 93 3.2 8.0 0.00 0.00 0.00 81 1004.8
20260509075543 21 239 4.8 8.0 0.00 0.00 0.00 82 1005.2
20260509075041 21 225 4.8 8.0 0.00 0.00 0.00 88 1005.8
20260509074538 21 292 4.8 9.7 0.00 0.00 0.00 92 1006.3
20260509074034 20 255 3.2 8.0 0.00 0.00 0.00 94 1006.8
20260509073531 20 222 0.0 1.6 0.00 0.00 0.00 94 1007.2
20260509073027 20 248 4.8 4.8 0.00 0.00 0.00 95 1007.5
20260509072524 20 210 1.6 3.2 0.00 0.00 0.00 95 1007.9
20260509072021 20 247 3.2 4.8 0.00 0.00 0.00 95 1008.1
20260509071517 21 214 1.6 4.8 0.00 0.00 0.00 95 1008.0
20260509071015 20 232 3.2 11.3 0.00 0.00 0.00 95 1008.1
20260509070512 20 242 1.6 8.0 0.00 0.00 0.00 96 1008.1
20260509070008 20 138 1.6 4.8 0.00 0.00 0.00 96 1008.6
20260509065503 20 248 1.6 4.8 0.00 0.00 0.00 97 1008.6
20260509065000 20 232 0.0 3.2 0.00 0.00 0.00 97 1008.8
20260509064458 20 239 1.6 1.6 0.00 0.00 0.00 97 1008.8
20260509063955 20 218 1.6 3.2 0.00 0.00 0.00 97 1008.8
20260509063451 20 245 1.6 3.2 0.00 0.00 0.00 97 1009.3
20260509062948 20 247 3.2 3.2 0.00 0.00 0.00 97 1009.3
20260509062445 20 243 3.2 4.8 0.00 0.00 0.00 97 1009.4
20260509061943 20 228 0.0 1.6 0.00 0.00 0.00 97 1009.4
20260509061440 20 258 3.2 3.2 0.00 0.00 0.00 97 1009.5
20260509060937 20 250 1.6 3.2 0.00 0.00 0.00 97 1009.5
20260509060435 20 237 0.0 1.6 0.00 0.00 0.00 97 1009.5
20260509055930 20 239 1.6 1.6 0.00 0.00 0.00 96 1009.4
20260509055425 20 234 1.6 3.2 0.00 0.00 0.00 96 1009.3
20260509054922 20 224 0.0 1.6 0.00 0.00 0.00 95 1009.3
20260509054419 20 227 0.0 1.6 0.00 0.00 0.00 95 1009.1
20260509053917 20 171 0.0 1.6 0.00 0.00 0.00 95 1009.2
20260509053415 20 231 0.0 1.6 0.00 0.00 0.00 93 1009.3
20260509052912 20 231 0.0 0.0 0.00 0.00 0.00 92 1009.6
20260509052409 21 232 1.6 1.6 0.00 0.00 0.00 92 1009.4
20260509051907 21 189 0.0 1.6 0.00 0.00 0.00 92 1009.7
20260509051359 21 214 0.0 1.6 0.00 0.00 0.00 91 1009.7
20260509050856 21 211 1.6 3.2 0.00 0.00 0.00 91 1010.1
20260509050352 21 189 1.6 3.2 0.00 0.00 0.00 90 1010.0
20260509045848 21 303 4.8 8.0 0.00 0.81 0.81 90 1010.0
20260509045345 21 169 1.6 3.2 0.00 0.81 0.81 91 1010.1
20260509044843 21 213 0.0 0.0 0.00 0.81 0.81 91 1009.3
20260509044335 21 213 0.0 0.0 0.00 0.81 0.81 90 1008.9
20260509043831 21 213 0.0 0.0 0.00 0.81 0.81 90 1008.7
20260509043327 21 230 0.0 0.0 0.00 0.81 0.81 90 1008.7
20260509042823 21 231 0.0 1.6 0.00 0.81 0.81 90 1008.5
20260509042320 21 262 0.0 4.8 0.00 0.81 0.81 90 1008.3
20260509041816 21 243 3.2 4.8 0.00 0.81 0.81 90 1008.4
20260509041314 21 163 0.0 1.6 0.00 0.81 0.81 90 1008.2
20260509040812 21 133 0.0 1.6 0.00 0.81 0.81 90 1008.4
20260509040309 21 116 1.6 1.6 0.00 0.81 0.81 90 1008.3
20260509035806 21 170 0.0 1.6 0.00 0.81 0.81 89 1008.3
20260509035306 21 131 0.0 1.6 0.00 0.81 0.81 88 1008.4
20260509034759 21 153 0.0 1.6 0.00 0.81 0.81 88 1008.4
20260509034257 21 171 0.0 1.6 0.00 0.81 0.81 88 1008.3
20260509033754 22 162 1.6 3.2 0.00 0.81 0.81 87 1008.4
20260509033251 22 144 1.6 1.6 0.00 0.81 0.81 87 1008.5
20260509032748 22 123 0.0 1.6 0.00 0.81 0.81 87 1008.5
20260509032245 22 137 0.0 3.2 0.00 0.81 0.81 87 1008.9
20260509031742 22 107 1.6 1.6 0.00 0.81 0.81 86 1008.9
20260509031240 22 86 3.2 3.2 0.00 0.81 0.81 87 1008.5
20260509030738 22 150 0.0 3.2 0.00 0.81 0.81 87 1008.3
20260509030235 22 108 0.0 1.6 0.00 0.81 0.81 87 1008.1
20260509025732 22 84 1.6 1.6 0.00 0.81 0.81 87 1007.7
20260509025227 22 145 0.0 1.6 0.00 0.81 0.81 86 1007.2
20260509024723 22 135 0.0 3.2 0.00 0.81 0.81 86 1007.0
20260509024219 22 125 0.0 3.2 0.00 0.81 0.81 86 1007.3
20260509023716 22 158 0.0 3.2 0.00 0.81 0.81 86 1007.2
20260509023214 22 134 1.6 3.2 0.00 0.81 0.81 85 1006.9
20260509022709 22 103 1.6 3.2 0.00 0.81 0.81 85 1006.8
20260509022208 22 89 3.2 4.8 0.00 0.81 0.81 85 1006.6
20260509021704 22 195 0.0 3.2 0.00 0.81 0.81 85 1006.6
20260509021202 22 87 1.6 1.6 0.00 0.81 0.81 85 1006.4
20260509020700 22 41 1.6 8.0 0.00 0.81 0.81 85 1006.7
20260509020156 22 59 0.0 1.6 0.00 0.81 0.81 85 1006.3
20260509015654 22 324 1.6 3.2 0.00 0.81 0.81 84 1006.1
20260509015152 22 73 1.6 4.8 0.00 0.81 0.81 84 1006.2
20260509014649 22 241 1.6 3.2 0.00 0.81 0.81 84 1006.2
20260509014145 22 285 3.2 3.2 0.00 0.81 0.81 83 1006.4
20260509013642 22 102 0.0 4.8 0.00 0.81 0.81 82 1006.4
20260509013138 22 66 1.6 3.2 0.00 0.81 0.81 82 1006.6
20260509012634 22 138 1.6 3.2 0.00 0.81 0.81 81 1006.5
20260509012131 22 213 1.6 1.6 0.00 0.81 0.81 81 1006.6
20260509011630 22 245 0.0 1.6 0.00 0.81 0.81 81 1006.8
20260509011126 23 177 0.0 3.2 0.00 0.81 0.81 81 1006.9
20260509010624 23 115 1.6 1.6 0.00 0.81 0.81 81 1006.8
20260509010120 23 109 1.6 4.8 0.00 0.81 0.81 80 1006.7
20260509005618 23 188 0.0 1.6 0.00 0.81 0.81 80 1006.8
20260509005114 23 222 0.0 3.2 0.00 0.81 0.81 80 1006.7
20260509004610 23 121 1.6 3.2 0.00 0.81 0.81 80 1006.5
20260509004107 23 320 1.6 9.7 0.00 0.81 0.81 80 1006.3
20260509003606 23 226 0.0 8.0 0.00 0.81 0.81 79 1006.2
20260509003103 23 181 0.0 3.2 0.00 0.81 0.81 79 1006.4
20260509002600 23 266 3.2 3.2 0.00 0.81 0.81 77 1006.2
20260509002057 23 219 0.0 4.8 0.00 0.81 0.81 78 1006.4
20260509001554 23 300 3.2 4.8 0.00 0.81 0.81 77 1006.3
20260509001050 23 59 0.0 4.8 0.00 0.81 0.81 76 1006.2
20260509000549 24 274 1.6 3.2 0.00 0.81 0.81 75 1006.3
20260509000045 24 190 0.0 1.6 0.00 0.81 0.81 76 1006.3
20260508235543 23 60 0.0 3.2 0.00 0.81 0.81 76 1006.3
20260508235038 24 209 0.0 1.6 0.00 0.81 0.81 75 1006.2
20260508234536 24 252 3.2 9.7 0.00 0.81 0.81 75 1006.6
20260508234032 24 113 0.0 4.8 0.00 0.81 0.81 74 1006.7
20260508233526 25 37 1.6 8.0 0.00 0.81 0.81 74 1006.7
20260508233023 25 289 8.0 12.9 0.00 0.81 0.81 73 1006.7
20260508232520 25 285 4.8 4.8 0.00 0.81 0.81 73 1006.7
20260508232017 25 277 0.0 1.6 0.00 0.81 0.81 72 1006.6
20260508231515 25 2 3.2 8.0 0.00 0.81 0.81 72 1006.6
20260508231012 25 44 1.6 4.8 0.00 0.81 0.81 72 1006.6
20260508230508 25 311 1.6 3.2 0.00 0.81 0.81 72 1006.6
20260508230005 25 320 6.4 8.0 0.00 0.81 0.81 72 1006.6
20260508225502 25 253 1.6 3.2 0.00 0.81 0.81 71 1006.6
20260508224959 25 33 1.6 3.2 0.00 0.81 0.81 71 1006.7
20260508224456 25 278 1.6 8.0 0.00 0.81 0.81 69 1006.8
20260508223954 26 68 0.0 4.8 0.00 0.81 0.81 68 1006.5
20260508223452 26 316 4.8 8.0 0.00 0.81 0.81 66 1006.6
20260508222948 25 313 3.2 3.2 0.00 0.81 0.81 69 1006.6
20260508222446 26 39 6.4 9.7 0.00 0.81 0.81 66 1006.6
20260508221942 26 275 1.6 3.2 0.00 0.81 0.81 65 1006.8
20260508221438 26 62 3.2 4.8 0.00 0.81 0.81 65 1006.8
20260508220935 26 31 4.8 9.7 0.00 0.81 0.81 64 1006.7
20260508220431 26 226 0.0 11.3 0.00 0.81 0.81 65 1006.8
20260508215928 26 231 1.6 4.8 0.00 0.81 0.81 64 1006.5
20260508215425 26 337 1.6 8.0 0.00 0.81 0.81 64 1006.8
20260508214921 26 272 1.6 4.8 0.00 0.81 0.81 63 1006.6
20260508214419 26 42 4.8 8.0 0.00 0.81 0.81 62 1006.8
20260508213915 26 289 1.6 3.2 0.00 0.81 0.81 63 1006.9
20260508213413 27 258 1.6 4.8 0.00 0.81 0.81 61 1006.9
20260508212908 26 170 1.6 4.8 0.00 0.81 0.81 65 1007.1
20260508212405 26 49 1.6 9.7 0.00 0.81 0.81 64 1006.9
20260508211901 27 334 3.2 3.2 0.00 0.81 0.81 63 1007.2
20260508211356 26 236 3.2 8.0 0.00 0.81 0.81 65 1007.2
20260508210854 26 316 3.2 4.8 0.00 0.81 0.81 63 1007.3
20260508210350 26 288 3.2 8.0 0.00 0.81 0.81 61 1007.5
20260508205847 26 271 4.8 4.8 0.00 0.81 0.81 63 1007.7
20260508205344 26 193 3.2 4.8 0.00 0.81 0.81 64 1007.5
20260508204840 26 5 1.6 4.8 0.00 0.81 0.81 65 1007.7
20260508204337 25 173 0.0 3.2 0.00 0.81 0.81 65 1007.3
20260508203833 25 150 3.2 3.2 0.00 0.81 0.81 66 1007.4
20260508203329 25 124 4.8 8.0 0.00 0.81 0.81 65 1007.9
20260508202825 25 172 0.0 3.2 0.00 0.81 0.81 67 1008.1
20260508202322 24 104 1.6 4.8 0.00 0.81 0.81 70 1008.1
20260508201814 24 127 3.2 3.2 0.00 0.81 0.81 66 1008.8
20260508201311 23 226 0.0 4.8 0.00 0.81 0.81 70 1008.8
20260508200807 23 249 1.6 4.8 0.00 0.81 0.81 70 1009.0
20260508200303 23 253 4.8 8.0 0.00 0.81 0.81 69 1009.3
20260508195800 23 194 3.2 4.8 0.00 0.81 0.81 69 1009.3
20260508195256 23 263 4.8 4.8 0.00 0.81 0.81 68 1009.3
20260508194752 24 187 3.2 8.0 0.00 0.81 0.81 67 1009.3
20260508194250 24 226 0.0 1.6 0.00 0.81 0.81 68 1009.3
20260508193747 24 231 0.0 4.8 0.00 0.81 0.81 67 1009.2
20260508193244 25 324 1.6 9.7 0.00 0.81 0.81 67 1009.3
20260508192740 25 224 4.8 8.0 0.00 0.81 0.81 64 1009.0
20260508192237 25 202 0.0 3.2 0.00 0.81 0.81 65 1009.1
20260508191734 25 269 3.2 3.2 0.00 0.81 0.81 66 1009.4
20260508191231 25 196 1.6 8.0 0.00 0.81 0.81 65 1009.2
20260508190728 25 258 1.6 3.2 0.00 0.81 0.81 64 1009.0
20260508190224 25 347 1.6 4.8 0.00 0.81 0.81 65 1009.2
20260508185721 25 135 1.6 3.2 0.00 0.81 0.81 64 1009.2
20260508185219 26 12 3.2 8.0 0.00 0.81 0.81 63 1009.4
20260508184716 25 260 0.0 3.2 0.00 0.81 0.81 64 1009.3
20260508184213 25 224 0.0 4.8 0.00 0.81 0.81 64 1009.4
20260508183709 26 55 3.2 4.8 0.00 0.81 0.81 60 1009.5
20260508183206 27 54 1.6 4.8 0.00 0.81 0.81 62 1009.7
20260508182702 27 189 1.6 9.7 0.00 0.81 0.81 62 1009.7
20260508182159 27 270 3.2 8.0 0.00 0.81 0.81 63 1009.6
20260508181654 26 288 3.2 3.2 0.00 0.81 0.81 61 1009.8
20260508181151 26 166 3.2 4.8 0.00 0.81 0.81 61 1009.9
20260508180648 26 272 3.2 8.0 0.00 0.81 0.81 62 1010.0
20260508180145 25 253 1.6 4.8 0.00 0.81 0.81 64 1010.0
20260508175642 26 228 1.6 9.7 0.00 0.81 0.81 64 1010.2
20260508175138 26 40 3.2 4.8 0.00 0.81 0.81 62 1010.3
20260508174636 26 215 1.6 3.2 0.00 0.81 0.81 63 1010.3
20260508174132 25 174 1.6 3.2 0.00 0.81 0.81 62 1010.3
20260508173630 26 9 3.2 3.2 0.00 0.81 0.81 63 1010.5
20260508173126 26 264 1.6 4.8 0.00 0.81 0.81 62 1010.3
20260508172623 25 329 1.6 3.2 0.00 0.81 0.81 67 1010.6
20260508172119 25 249 0.0 3.2 0.00 0.81 0.81 65 1010.6
20260508171616 26 234 6.4 9.7 0.00 0.81 0.81 64 1010.7
20260508171113 25 229 3.2 8.0 0.00 0.81 0.81 66 1010.7
20260508170610 25 321 3.2 4.8 0.00 0.81 0.81 66 1010.6
20260508170107 24 81 3.2 4.8 0.00 0.81 0.81 66 1010.9
20260508165604 25 355 1.6 4.8 0.00 0.81 0.81 64 1011.0
20260508165101 24 305 1.6 4.8 0.00 0.81 0.81 68 1011.0
20260508164557 25 65 3.2 8.0 0.00 0.81 0.81 66 1011.2
20260508164054 25 333 1.6 3.2 0.00 0.81 0.81 65 1011.4
20260508163552 23 72 1.6 3.2 0.00 0.81 0.81 66 1011.6
20260508163048 23 147 1.6 4.8 0.00 0.81 0.81 69 1011.5
20260508162545 23 97 3.2 3.2 0.00 0.81 0.81 68 1011.4